TimeAKDT,TemperatureF,Dew PointF,Humidity,Sea Level PressureIn,VisibilityMPH,Wind Direction,Wind SpeedMPH,Gust SpeedMPH,PrecipitationIn,Events,Conditions,WindDirDegrees,DateUTC
12:53 AM,37.0,26.1,65,30.41,10.0,Calm,Calm,-,N/A,,Overcast,0,2012-10-02 08:53:00
1:53 AM,37.0,27.0,67,30.41,10.0,NNE,3.5,-,N/A,,Overcast,20,2012-10-02 09:53:00
2:53 AM,37.0,28.0,70,30.41,10.0,Calm,Calm,-,N/A,,Overcast,0,2012-10-02 10:53:00
3:53 AM,37.0,28.0,70,30.40,10.0,NNE,3.5,-,N/A,,Overcast,20,2012-10-02 11:53:00
4:53 AM,37.0,30.0,76,30.39,10.0,Variable,5.8,-,N/A,,Overcast,0,2012-10-02 12:53:00
5:53 AM,36.0,32.0,86,30.39,10.0,Variable,4.6,-,0.00,Rain,Light Rain,0,2012-10-02 13:53:00
6:53 AM,35.1,33.1,92,30.38,10.0,North,6.9,-,0.00,Rain,Light Rain,360,2012-10-02 14:53:00
7:53 AM,36.0,33.1,89,30.37,10.0,Variable,4.6,-,0.00,,Overcast,0,2012-10-02 15:53:00
8:53 AM,36.0,33.1,89,30.37,10.0,North,4.6,-,0.00,,Overcast,10,2012-10-02 16:53:00
9:53 AM,36.0,34.0,93,30.35,10.0,North,5.8,-,0.00,,Overcast,350,2012-10-02 17:53:00
10:53 AM,36.0,34.0,93,30.35,10.0,North,5.8,-,0.00,Rain,Light Rain,10,2012-10-02 18:53:00
11:53 AM,37.0,34.0,89,30.34,10.0,North,5.8,-,0.00,,Overcast,360,2012-10-02 19:53:00
12:53 PM,37.0,35.1,93,30.34,10.0,NNW,4.6,-,0.00,Rain,Light Rain,340,2012-10-02 20:53:00
1:53 PM,37.9,35.1,89,30.33,10.0,North,4.6,-,0.00,,Overcast,360,2012-10-02 21:53:00
2:53 PM,39.0,35.1,86,30.31,10.0,North,6.9,-,N/A,,Overcast,360,2012-10-02 22:53:00
4:53 PM,41.0,36.0,82,30.28,10.0,North,4.6,-,N/A,,Overcast,350,2012-10-03 00:53:00
5:53 PM,39.9,36.0,86,30.27,10.0,NNW,4.6,-,N/A,,Overcast,340,2012-10-03 01:53:00
6:53 PM,39.0,35.1,86,30.28,10.0,NNW,3.5,-,0.00,Rain,Light Rain,340,2012-10-03 02:53:00
7:53 PM,37.9,36.0,93,30.28,10.0,North,3.5,-,0.01,Rain,Light Rain,350,2012-10-03 03:53:00
8:53 PM,37.9,37.0,97,30.29,10.0,North,3.5,-,0.02,Rain,Light Rain,10,2012-10-03 04:53:00
9:53 PM,39.0,35.1,86,30.29,10.0,NNE,6.9,-,0.01,,Overcast,30,2012-10-03 05:53:00
10:53 PM,37.9,35.1,89,30.29,10.0,NNE,8.1,-,0.01,Rain,Light Rain,30,2012-10-03 06:53:00
11:53 PM,39.0,35.1,86,30.30,10.0,NNE,8.1,-,0.00,,Overcast,20,2012-10-03 07:53:00